Location: Peterborough
(44.3091°N, 78.3197°W)
Time: 05:04:08
(UTC-04:00)

Vanguard 3 - Pass Details

Date: 27 March 2023
Orbit: 507 x 3246 km, 33.4° (Epoch: 08 June)

Event Time Altitude Azimuth Distance (km) Brightness Sun altitude
Rises 08:37:46 0° 275° (W) 7,205 11.3 15.9°
Reaches altitude 10° 08:43:12 10° 270° (W) 6,085 11.1 16.8°
Maximum altitude 08:59:28 41° 210° (SSW) 3,337 10.4 19.6°
Drops below altitude 10° 09:10:31 10° 145° (SE) 4,176 11.8 21.5°
Sets 09:13:30 0° 138° (SE) 4,831 12.1 22.0°
